QPF
0.00 0.00 0.00 0.00 0.00 0.00 0.00 0.00 0.00 0.00 0.00 0.00 0.00 0.00 0.00 0.00 0.00 0.00 0.00 0.00 0.00 0.00 0.00 0.00 0.00 0.00 0.00 0.00 0.00 0.00 0.00 0.00 0.00 0.00 0.00 0.00 0.00 0.00 0.00 0.00 0.00 0.00 0.00 0.00 0.00
0.00 0.00 0.00 0.00 0.00 0.00 0.00 0.00 0.00 0.00 0.00 0.00 0.00 0.00 0.00 0.00 0.00 0.00 0.00 0.00 0.00 0.00 0.00 0.00 0.00 0.00 0.00 0.00 0.00 0.00 0.00 0.00 0.00 0.00 0.00 0.00 0.00 0.00 0.00 0.00 0.00 0.00 0.00 0.00 0.00
0.00 0.00 0.00 0.00 0.00 0.00 0.00 0.00 0.00 0.00 0.00 0.00 0.00 0.00 0.00 0.00 0.00 0.00 0.00 0.00 0.00 0.00 0.00 0.00 0.00 0.00 0.00 0.00 0.00 0.00 0.00 0.00 0.00 0.00 0.00 0.00 0.00 0.00 0.00 0.00 0.00 0.00 0.00 0.00 0.00
0.00 0.00 0.00 0.00 0.00 0.00 0.00 0.00 0.00 0.00 0.00 0.00 0.00 0.00 0.00 0.00 0.00 0.00 0.00 0.00 0.00 0.00 0.00 0.00 0.00 0.00 0.00 0.00 0.00 0.00 0.00 0.00 0.00 0.00 0.00 0.00 0.00 0.00 0.00 0.00 0.00 0.00 0.00 0.00 0.00
0.00 0.00 0.00 0.00 0.00 0.00 0.00 0.00 0.00 0.00 0.00 0.00 0.00 0.00 0.00 0.00 0.00 0.00 0.00 0.00 0.00 0.00 0.00 0.00 0.00 0.00 0.00 0.00 0.00 0.00 0.00 0.00 0.00 0.00 0.00 0.00 0.00 0.00 0.00 0.00 0.00 0.00 0.00 0.00 0.00
0.00 0.00 0.00 0.00 0.00 0.00 0.00 0.00 0.00 0.00 0.00 0.00 0.00 0.00 0.00 0.00 0.00 0.00 0.00 0.00 0.00 0.00 0.00 0.00 0.00 0.00 0.00 0.00 0.00 0.00 0.00 0.00 0.00 0.00 0.00 0.00 0.00 0.00 0.00 0.00 0.00 0.00 0.00 0.00 0.00
0.00 0.00 0.00 0.00 0.00 0.00 0.00 0.00 0.00 0.00 0.00 0.00 0.00 0.00 0.00 0.00 0.00 0.00 0.00 0.00 0.00 0.00 0.00 0.00 0.00 0.00 0.00 0.00 0.00 0.00 0.00 0.00 0.00 0.00 0.00 0.00 0.00 0.00 0.00 0.00 0.00 0.00 0.00 0.00 0.00
0.00 0.00 0.00 0.00 0.00 0.00 0.00 0.00 0.00 0.00 0.00 0.00 0.00 0.00 0.00 0.00 0.00 0.00 0.00 0.00 0.00 0.00 0.00 0.00 0.00 0.00 0.00 0.00 0.00 0.00 0.00 0.00 0.00 0.00 0.00 0.00 0.00 0.00 0.00 0.00 0.00 0.00 0.00 0.00 0.00
0.00 0.00 0.00 0.00 0.00 0.00 0.00 0.00 0.00 0.00 0.00 0.00 0.00 0.00 0.00 0.00 0.00 0.00 0.00 0.00 0.00 0.00 0.00 0.00 0.00 0.00 0.00 0.00 0.00 0.00 0.00 0.00 0.00 0.00 0.00 0.00 0.00 0.00 0.00 0.00 0.00 0.00 0.00 0.00 0.00
0.00 0.00 0.00 0.00 0.00 0.00 0.00 0.00 0.00 0.00 0.00 0.00 0.00 0.00 0.00 0.00 0.00 0.00 0.00 0.00 0.00 0.00 0.00 0.00 0.00 0.00 0.00 0.00 0.00 0.00 0.00 0.00 0.00 0.00 0.00 0.00 0.00 0.00 0.00 0.00 0.00 0.00 0.00 0.00 0.00
0.00 0.00 0.00 0.00 0.00 0.00 0.00 0.00 0.00 0.00 0.00 0.00 0.00 0.00 0.00 0.00 0.00 0.00 0.00 0.00 0.00 0.00 0.00 0.00 0.00 0.00 0.00 0.00 0.00 0.00 0.00 0.00 0.00 0.00 0.00 0.00 0.00 0.00 0.00 0.00 0.00 0.00 0.00 0.00 0.00
0.00 0.00 0.00 0.00 0.00 0.00 0.00 0.00 0.00 0.00 0.00 0.00 0.00 0.00 0.00 0.00 0.00 0.00 0.00 0.00 0.00 0.00 0.00 0.00 0.00 0.00 0.00 0.00 0.00 0.00 0.00 0.00 0.00 0.00 0.00 0.00 0.00 0.00 0.00 0.00 0.00 0.00 0.00 0.00 0.00
0.00 0.00 0.00 0.00 0.00 0.00 0.00 0.00 0.00 0.00 0.00 0.00 0.00 0.00 0.00 0.00 0.00 0.00 0.00 0.00 0.00 0.00 0.00 0.00 0.00 0.00 0.00 0.00 0.00 0.00 0.00 0.00 0.00 0.00 0.00 0.00 0.00 0.00 0.00 0.00 0.00 0.00 0.00 0.00 0.00
0.00 0.00 0.00 0.00 0.00 0.00 0.00 0.00 0.00 0.00 0.00 0.00 0.00 0.00 0.00 0.00 0.00 0.00 0.00 0.00 0.00 0.00 0.00 0.00 0.00 0.00 0.00 0.00 0.00 0.00 0.00 0.00 0.00 0.00 0.00 0.00 0.00 0.00 0.00 0.00 0.00 0.00 0.00 0.00 0.00
0.00 0.00 0.00 0.00 0.00 0.00 0.00 0.00 0.00 0.00 0.00 0.00 0.00 0.00 0.00 0.00 0.00 0.00 0.00 0.01 0.01 0.00 0.01 0.00 0.00 0.00 0.00 0.00 0.00 0.00 0.00 0.00 0.00 0.00 0.00 0.00 0.00 0.00 0.00 0.00 0.00 0.00 0.00 0.00 0.00
0.00 0.00 0.00 0.00 0.00 0.00 0.00 0.00 0.00 0.00 0.00 0.00 0.00 0.00 0.00 0.00 0.00 0.00 0.00 0.01 0.01 0.01 0.02 0.00 0.00 0.00 0.00 0.00 0.00 0.00 0.00 0.00 0.00 0.00 0.00 0.00 0.00 0.00 0.00 0.00 0.00 0.00 0.00 0.00 0.00
0.00 0.00 0.00 0.00 0.00 0.00 0.00 0.00 0.00 0.00 0.00 0.00 0.00 0.00 0.00 0.00 0.00 0.00 0.00 0.00 0.01 0.01 0.02 0.00 0.00 0.00 0.00 0.00 0.00 0.00 0.00 0.00 0.00 0.00 0.00 0.00 0.00 0.00 0.00 0.00 0.00 0.00 0.00 0.00 0.00
0.00 0.00 0.00 0.00 0.00 0.00 0.00 0.00 0.00 0.00 0.00 0.00 0.00 0.00 0.00 0.00 0.00 0.00 0.00 0.02 0.03 0.02 0.01 0.02 0.01 0.00 0.00 0.00 0.00 0.00 0.00 0.00 0.00 0.00 0.00 0.00 0.00 0.00 0.00 0.00 0.00 0.00 0.00 0.00 0.00
0.00 0.00 0.00 0.00 0.00 0.00 0.00 0.00 0.00 0.00 0.00 0.00 0.00 0.00 0.00 0.00 0.00 0.00 0.00 0.05 0.06 0.05 0.01 0.01 0.02 0.01 0.00 0.00 0.00 0.00 0.00 0.00 0.00 0.00 0.00 0.00 0.00 0.00 0.00 0.00 0.00 0.00 0.00 0.00 0.00
0.00 0.00 0.00 0.00 0.00 0.00 0.00 0.00 0.00 0.00 0.00 0.00 0.00 0.00 0.00 0.00 0.00 0.01 0.01 0.04 0.02 0.02 0.00 0.00 0.01 0.00 0.00 0.00 0.00 0.00 0.00 0.00 0.00 0.00 0.00 0.00 0.00 0.00 0.00 0.00 0.00 0.00 0.00 0.00 0.00
0.00 0.00 0.00 0.00 0.00 0.00 0.00 0.00 0.00 0.00 0.00 0.00 0.00 0.01 0.00 0.00 0.00 0.00 0.00 0.00 0.02 0.01 0.00 0.00 0.00 0.00 0.00 0.00 0.00 0.00 0.00 0.00 0.00 0.00 0.00 0.00 0.00 0.00 0.00 0.00 0.00 0.00 0.00 0.00 0.00
0.00 0.00 0.00 0.00 0.00 0.00 0.00 0.00 0.00 0.00 0.00 0.00 0.00 0.01 0.00 0.00 0.00 0.00 0.00 0.00 0.00 0.00 0.00 0.01 0.00 0.00 0.00 0.00 0.00 0.00 0.00 0.00 0.00 0.00 0.00 0.00 0.00 0.00 0.00 0.00 0.00 0.00 0.00 0.00 0.00
0.00 0.00 0.00 0.00 0.00 0.00 0.00 0.00 0.00 0.00 0.00 0.00 0.00 0.00 0.00 0.00 0.01 0.00 0.00 0.00 0.00 0.00 0.01 0.03 0.01 0.00 0.00 0.00 0.00 0.00 0.00 0.00 0.00 0.00 0.00 0.00 0.00 0.00 0.00 0.00 0.00 0.00 0.00 0.00 0.00
0.00 0.00 0.00 0.00 0.00 0.00 0.00 0.00 0.00 0.00 0.00 0.00 0.00 0.00 0.01 0.00 0.01 0.00 0.00 0.00 0.00 0.00 0.01 0.05 0.00 0.00 0.00 0.00 0.00 0.00 0.00 0.00 0.00 0.00 0.00 0.00 0.00 0.00 0.00 0.00 0.00 0.00 0.00 0.00 0.00
0.00 0.00 0.00 0.00 0.00 0.00 0.00 0.00 0.00 0.00 0.00 0.00 0.00 0.00 0.01 0.01 0.00 0.00 0.00 0.00 0.00 0.00 0.00 0.02 0.01 0.00 0.00 0.00 0.00 0.00 0.00 0.00 0.00 0.00 0.00 0.00 0.00 0.00 0.00 0.00 0.00 0.00 0.00 0.00 0.00
0.00 0.00 0.00 0.00 0.00 0.00 0.00 0.00 0.00 0.00 0.00 0.00 0.01 0.01 0.01 0.00 0.00 0.00 0.00 0.01 0.00 0.00 0.00 0.01 0.01 0.00 0.00 0.00 0.00 0.00 0.00 0.00 0.00 0.00 0.00 0.00 0.00 0.00 0.00 0.00 0.00 0.00 0.00 0.00 0.00
0.00 0.00 0.00 0.00 0.00 0.00 0.00 0.00 0.00 0.00 0.00 0.00 0.00 0.01 0.00 0.00 0.00 0.00 0.00 0.00 0.00 0.00 0.00 0.01 0.00 0.00 0.00 0.00 0.00 0.00 0.00 0.00 0.00 0.00 0.00 0.00 0.00 0.00 0.00 0.00 0.00 0.00 0.00 0.00 0.00
MSLP
1020.78 1020.46 1020.09 1019.66 1019.32 1019.02 1018.65 1018.34 1018.16 1017.87 1017.56 1017.20 1016.82 1016.50 1016.04 1015.29 1014.78 1014.17 1013.14 1011.30 1011.13 1010.62 1010.75 1010.38 1010.01 1010.30 1010.28 1010.29 1010.33 1010.82 1011.38 1010.75 1009.18 1008.23 1006.94 1006.32 1005.92 1004.79 1004.22 1003.92 1003.58 1003.22 1003.23 1003.06 1003.10
1020.66 1020.29 1019.93 1019.58 1019.27 1018.95 1018.59 1018.20 1017.75 1017.49 1017.30 1017.09 1016.80 1016.42 1015.90 1015.33 1014.66 1013.33 1011.06 1010.79 1011.02 1010.63 1010.97 1010.61 1010.17 1010.25 1010.33 1010.19 1010.12 1010.41 1010.31 1009.08 1007.81 1007.26 1006.73 1005.96 1005.70 1005.51 1004.66 1004.09 1003.75 1003.43 1002.83 1002.93 1003.29
1020.71 1020.29 1019.87 1019.48 1019.12 1018.75 1018.42 1018.06 1017.63 1017.16 1016.78 1016.66 1016.52 1016.16 1015.75 1015.25 1014.52 1011.80 1010.56 1010.89 1010.87 1010.43 1010.59 1010.59 1010.13 1009.85 1010.04 1009.94 1009.73 1009.25 1008.51 1007.88 1006.88 1006.81 1006.59 1005.78 1005.13 1004.90 1004.78 1004.50 1003.96 1003.44 1003.41 1003.50 1003.68
1020.87 1020.40 1019.89 1019.43 1018.95 1018.49 1018.11 1017.67 1017.30 1016.99 1016.65 1016.35 1016.18 1016.07 1015.68 1015.53 1013.90 1010.70 1010.37 1010.53 1010.41 1009.66 1010.14 1010.39 1010.32 1009.88 1009.83 1009.43 1009.00 1008.78 1007.79 1007.25 1006.22 1006.47 1006.46 1006.17 1005.50 1004.98 1004.78 1004.31 1003.86 1003.52 1003.55 1003.66 1003.85
1020.75 1020.24 1019.71 1019.22 1018.71 1018.22 1017.75 1017.24 1016.93 1016.64 1016.47 1016.37 1016.30 1016.25 1016.09 1015.82 1013.07 1011.21 1010.93 1010.84 1010.59 1010.41 1010.24 1010.20 1010.01 1009.57 1009.26 1008.82 1008.82 1007.99 1007.34 1007.13 1006.38 1006.42 1006.19 1006.09 1005.17 1005.06 1003.87 1003.72 1003.12 1003.17 1003.33 1003.32 1003.39
1020.64 1020.12 1019.57 1019.03 1018.53 1017.96 1017.37 1016.78 1016.46 1016.07 1015.90 1015.86 1015.92 1016.11 1016.16 1015.39 1011.57 1011.28 1010.99 1010.82 1010.86 1010.90 1010.36 1010.08 1009.41 1009.16 1009.02 1008.49 1008.04 1007.17 1007.19 1006.98 1006.51 1006.39 1006.18 1006.08 1005.04 1004.95 1003.75 1003.56 1003.24 1003.39 1002.93 1002.74 1002.83
1020.52 1019.97 1019.39 1018.68 1018.03 1017.41 1016.63 1016.14 1015.99 1015.65 1015.14 1015.14 1015.37 1015.53 1015.38 1012.97 1011.20 1010.99 1011.28 1010.95 1010.65 1010.66 1010.40 1009.85 1009.37 1009.55 1008.53 1008.30 1007.60 1007.28 1007.49 1007.13 1006.62 1006.51 1006.11 1006.11 1004.62 1002.93 1003.73 1003.52 1003.27 1002.95 1002.47 1002.23 1002.40
1020.53 1019.99 1019.44 1018.86 1018.13 1017.25 1016.34 1015.68 1015.34 1014.94 1014.54 1014.69 1015.01 1015.10 1014.09 1011.26 1011.08 1011.12 1010.64 1010.47 1010.00 1010.14 1010.36 1009.64 1009.36 1009.28 1008.79 1008.06 1007.67 1007.73 1007.77 1007.42 1006.01 1006.64 1006.17 1006.03 1001.88 1002.72 1002.57 1002.95 1002.53 1002.39 1002.08 1002.01 1001.48
1020.34 1019.85 1019.30 1018.76 1018.11 1017.19 1016.24 1015.50 1015.00 1014.57 1014.37 1014.71 1015.36 1015.39 1012.96 1010.68 1010.64 1009.52 1009.70 1009.78 1009.48 1009.36 1009.64 1009.25 1009.18 1008.96 1008.73 1008.72 1008.67 1007.92 1007.08 1006.41 1006.40 1005.56 1005.83 1005.56 1001.30 1002.75 1002.52 1002.88 1002.23 1002.13 1001.86 1001.77 1001.66
1020.16 1019.58 1019.06 1018.52 1017.88 1017.05 1015.84 1014.68 1014.20 1014.32 1014.61 1014.87 1014.89 1015.21 1012.05 1010.64 1009.59 1009.06 1009.07 1009.12 1009.28 1009.32 1009.49 1009.60 1009.17 1008.71 1008.69 1008.65 1007.21 1007.26 1007.14 1006.44 1006.02 1005.32 1005.25 1005.02 1002.15 1003.22 1003.12 1002.93 1002.15 1001.93 1001.46 1001.35 1001.19
1020.01 1019.41 1018.79 1018.10 1017.43 1016.76 1015.92 1014.86 1015.31 1015.02 1014.86 1014.77 1014.02 1013.71 1012.02 1010.37 1009.47 1008.70 1008.46 1008.73 1008.72 1009.43 1009.69 1009.37 1009.30 1008.18 1007.60 1007.76 1007.39 1007.67 1007.48 1006.87 1006.18 1005.53 1005.22 1004.66 1003.46 1003.45 1003.20 1002.56 1002.24 1001.63 1001.18 1000.75 1000.36
1019.87 1019.22 1018.60 1017.96 1017.25 1016.80 1016.65 1016.69 1016.76 1017.18 1015.69 1013.57 1013.02 1012.78 1011.30 1010.77 1010.08 1008.62 1008.42 1008.93 1008.48 1009.37 1009.59 1009.70 1008.54 1008.41 1008.09 1007.88 1007.91 1007.88 1007.82 1007.45 1006.97 1006.12 1005.88 1005.25 1004.03 1003.72 1003.35 1002.45 1001.97 1001.37 1000.80 1000.63 1000.30
1019.70 1019.06 1018.30 1017.68 1017.14 1017.02 1017.09 1016.52 1016.54 1016.68 1016.56 1013.74 1012.31 1011.63 1010.66 1010.38 1009.60 1008.78 1008.73 1008.67 1008.78 1009.23 1009.39 1009.54 1008.67 1008.01 1007.93 1007.73 1007.80 1007.76 1007.72 1007.55 1007.57 1006.79 1005.85 1005.59 1003.89 1003.24 1002.20 1001.76 1001.07 1000.49 1000.14 999.98 999.85
1019.38 1018.86 1018.22 1017.41 1017.13 1017.39 1016.82 1016.09 1015.99 1016.01 1016.15 1013.91 1012.00 1010.85 1010.31 1010.08 1009.33 1008.41 1008.50 1008.90 1008.74 1008.80 1008.78 1008.94 1008.16 1007.84 1007.69 1007.58 1007.70 1007.56 1007.46 1007.46 1007.64 1007.65 1006.98 1006.14 1003.95 1002.88 1001.95 1000.95 1000.71 1000.29 999.81 999.19 999.31
1019.13 1018.49 1018.07 1017.88 1017.57 1017.20 1016.28 1015.93 1015.63 1015.99 1015.80 1013.67 1012.25 1010.95 1010.88 1010.80 1009.80 1008.53 1008.25 1008.32 1008.46 1008.42 1008.79 1008.18 1007.68 1007.42 1007.24 1006.96 1006.82 1006.78 1007.37 1007.89 1008.21 1008.03 1007.82 1007.06 1006.41 1000.31 1001.07 1000.11 999.60 999.19 998.58 998.27 998.36
1018.48 1017.92 1017.54 1017.53 1017.66 1016.38 1015.92 1015.72 1015.94 1016.70 1015.53 1013.95 1012.77 1012.15 1011.91 1011.11 1010.15 1009.09 1008.70 1008.28 1008.34 1008.41 1008.29 1007.64 1007.02 1006.91 1006.60 1006.55 1006.51 1006.51 1007.19 1007.94 1008.48 1008.78 1007.97 1007.13 1007.10 999.94 1000.77 999.29 998.75 998.48 998.18 997.82 997.77
1017.75 1017.06 1017.11 1017.00 1016.68 1016.06 1015.76 1016.27 1017.07 1016.85 1016.02 1014.89 1013.75 1013.09 1012.76 1012.02 1010.79 1010.00 1009.41 1009.11 1008.91 1008.93 1008.34 1007.55 1006.71 1006.11 1006.13 1006.55 1006.60 1006.81 1007.55 1008.59 1009.45 1009.26 1007.37 1006.27 1006.62 1000.50 999.02 998.66 998.45 998.34 998.24 997.86 997.53
1017.15 1016.46 1016.47 1016.27 1016.13 1016.02 1016.26 1016.98 1017.45 1017.21 1016.25 1015.26 1014.46 1013.67 1013.35 1012.42 1011.46 1010.87 1010.32 1010.15 1009.34 1009.38 1009.04 1008.39 1006.95 1006.03 1005.53 1005.76 1006.34 1006.82 1007.59 1007.82 1008.14 1008.13 1007.13 1006.46 1004.06 1000.27 999.21 997.87 998.18 998.46 998.08 997.79 997.55
1016.92 1016.87 1016.82 1016.14 1015.77 1016.11 1017.05 1017.76 1017.75 1017.07 1016.14 1015.45 1014.63 1014.01 1013.56 1013.10 1012.83 1012.00 1011.10 1010.83 1010.20 1010.39 1010.22 1009.06 1007.50 1006.54 1005.12 1004.90 1005.67 1006.47 1007.05 1006.99 1007.73 1007.59 1007.10 1004.90 1002.39 1000.58 999.23 998.79 998.22 998.46 998.26 997.96 997.33
1018.07 1017.73 1017.00 1016.22 1016.04 1016.51 1017.62 1018.09 1017.48 1016.57 1015.94 1015.48 1015.17 1014.59 1014.20 1013.69 1013.41 1012.81 1011.65 1010.92 1010.49 1010.35 1010.38 1009.75 1008.52 1007.41 1005.82 1004.93 1005.23 1005.46 1006.08 1007.13 1007.96 1007.80 1006.97 1004.34 1002.73 1000.84 999.51 998.92 998.63 998.73 998.51 997.83 997.02
1018.25 1017.91 1016.85 1016.37 1016.33 1017.54 1018.54 1018.36 1017.23 1016.17 1015.75 1015.64 1015.01 1014.77 1014.55 1014.32 1013.92 1013.20 1012.02 1010.93 1010.56 1010.47 1010.37 1010.02 1009.27 1007.63 1006.75 1006.13 1005.93 1005.99 1006.15 1006.71 1007.22 1007.33 1006.36 1004.70 1002.09 999.77 998.98 999.18 999.22 998.82 998.43 997.94 997.23
1019.25 1018.70 1016.96 1016.59 1017.80 1019.14 1019.24 1018.47 1017.35 1016.14 1015.67 1015.31 1014.90 1014.85 1014.75 1014.57 1014.19 1013.51 1012.19 1011.12 1010.69 1010.65 1010.63 1010.31 1010.00 1008.87 1007.55 1006.78 1006.79 1006.95 1007.01 1007.22 1007.40 1007.32 1006.21 1005.16 1002.43 999.39 999.14 998.99 998.95 998.60 998.18 997.66 997.22
1020.33 1019.54 1017.46 1017.23 1019.13 1019.99 1019.47 1018.56 1017.49 1016.46 1015.92 1015.55 1015.31 1015.01 1014.88 1014.97 1014.56 1013.32 1012.12 1010.95 1010.69 1010.83 1010.71 1010.72 1010.55 1009.90 1008.42 1007.82 1007.39 1007.37 1007.32 1007.37 1007.51 1007.46 1006.27 1005.10 1001.47 999.62 999.08 999.07 999.29 998.97 998.11 997.60 997.52
1020.82 1020.48 1019.69 1019.77 1020.44 1020.60 1020.04 1018.73 1017.38 1016.53 1015.91 1015.54 1015.31 1014.95 1015.03 1014.61 1013.97 1013.18 1012.25 1011.57 1010.67 1010.78 1010.68 1010.83 1010.88 1010.70 1010.03 1009.08 1008.72 1008.39 1007.89 1007.65 1007.65 1007.37 1005.93 1003.44 1002.76 1001.32 999.95 1000.08 999.39 998.63 998.17 997.52 997.27
1021.51 1022.05 1021.77 1021.39 1021.11 1020.86 1020.15 1018.95 1017.64 1016.83 1016.17 1015.72 1015.39 1015.11 1014.95 1014.04 1013.55 1012.56 1012.23 1011.74 1011.18 1010.96 1010.72 1010.82 1010.62 1010.82 1010.14 1009.48 1009.03 1008.52 1008.03 1007.50 1007.14 1006.46 1005.91 1003.63 1003.06 1002.47 1000.47 1000.48 999.95 999.23 998.19 997.31 997.27
1022.38 1022.53 1022.22 1021.79 1021.17 1020.63 1019.74 1018.57 1017.70 1017.04 1016.88 1015.77 1015.45 1014.91 1014.57 1014.03 1013.63 1012.31 1012.26 1011.81 1011.38 1011.03 1010.59 1011.02 1010.90 1010.38 1009.86 1009.46 1008.74 1007.98 1007.27 1006.73 1005.96 1005.63 1004.41 1004.06 1002.78 1002.74 1001.00 1000.40 999.72 999.04 998.28 997.45 997.20
1022.36 1022.53 1022.46 1021.68 1021.27 1020.81 1019.66 1018.50 1017.67 1017.40 1016.23 1015.85 1015.29 1014.73 1013.86 1012.99 1012.48 1011.80 1011.42 1010.91 1011.21 1010.95 1010.85 1010.85 1010.77 1010.46 1009.40 1008.58 1008.21 1006.98 1005.57 1005.14 1004.35 1003.89 1003.72 1003.00 1002.60 1002.27 1000.72 1000.49 999.79 998.77 998.01 997.08 996.90
Thickness
5592 5595 5599 5602 5605 5608 5612 5614 5615 5618 5621 5625 5629 5634 5640 5648 5654 5662 5675 5687 5691 5701 5701 5708 5713 5713 5715 5714 5719 5715 5687 5689 5718 5730 5749 5764 5759 5777 5789 5787 5794 5801 5801 5811 5820
5590 5593 5596 5598 5601 5604 5607 5610 5614 5615 5617 5618 5622 5626 5632 5639 5646 5655 5681 5682 5682 5690 5690 5694 5699 5700 5695 5702 5705 5699 5683 5707 5741 5746 5745 5758 5760 5761 5767 5770 5777 5790 5807 5811 5811
5587 5589 5592 5595 5597 5600 5602 5606 5609 5612 5615 5615 5617 5621 5625 5631 5636 5657 5670 5669 5672 5679 5682 5684 5691 5694 5687 5693 5695 5701 5701 5731 5742 5742 5744 5748 5755 5766 5756 5754 5769 5778 5790 5793 5797
5580 5583 5586 5589 5592 5595 5598 5601 5604 5605 5608 5611 5613 5614 5617 5619 5630 5657 5663 5664 5666 5675 5674 5673 5674 5676 5674 5682 5699 5689 5712 5728 5744 5735 5735 5736 5750 5748 5752 5760 5780 5784 5785 5788 5786
5575 5578 5582 5585 5588 5590 5593 5597 5598 5600 5601 5602 5602 5603 5604 5600 5618 5641 5648 5650 5654 5657 5660 5660 5662 5670 5665 5678 5686 5691 5705 5713 5731 5726 5728 5732 5738 5738 5752 5768 5786 5785 5783 5784 5786
5571 5574 5577 5580 5583 5586 5590 5594 5596 5597 5598 5597 5596 5593 5592 5582 5629 5633 5634 5638 5639 5641 5648 5651 5657 5662 5661 5666 5677 5694 5693 5700 5711 5714 5714 5712 5726 5728 5749 5768 5773 5773 5781 5785 5787
5567 5570 5573 5577 5581 5584 5589 5592 5593 5594 5596 5594 5590 5588 5585 5595 5619 5623 5621 5623 5628 5633 5637 5642 5646 5642 5655 5657 5671 5679 5669 5678 5688 5697 5701 5712 5711 5729 5748 5760 5757 5766 5775 5783 5783
5562 5565 5567 5569 5573 5578 5583 5587 5588 5590 5590 5587 5582 5579 5577 5608 5609 5609 5614 5613 5618 5619 5623 5629 5632 5633 5639 5651 5657 5655 5653 5649 5689 5682 5693 5697 5710 5738 5754 5748 5755 5762 5767 5769 5784
5558 5560 5562 5564 5567 5572 5577 5581 5583 5583 5582 5576 5568 5563 5572 5599 5597 5607 5606 5605 5609 5612 5611 5614 5617 5620 5626 5621 5618 5629 5645 5648 5662 5686 5678 5681 5714 5724 5742 5739 5743 5750 5754 5757 5764
5555 5558 5559 5561 5563 5567 5575 5579 5579 5574 5567 5561 5557 5548 5574 5578 5585 5588 5589 5592 5589 5592 5592 5590 5594 5599 5601 5602 5619 5629 5633 5645 5641 5668 5668 5668 5700 5709 5719 5723 5734 5740 5748 5752 5757
5552 5554 5556 5558 5560 5562 5566 5568 5553 5549 5551 5546 5549 5543 5552 5563 5565 5564 5568 5564 5568 5567 5561 5570 5566 5589 5614 5612 5621 5617 5618 5624 5641 5657 5662 5665 5680 5692 5699 5710 5717 5733 5744 5751 5760
5548 5549 5551 5552 5554 5553 5551 5545 5538 5528 5524 5545 5538 5531 5537 5534 5528 5535 5540 5531 5538 5533 5541 5539 5557 5582 5591 5587 5594 5596 5596 5602 5619 5638 5642 5649 5656 5674 5684 5700 5711 5726 5736 5740 5747
5545 5546 5547 5548 5547 5543 5537 5537 5530 5523 5508 5528 5533 5526 5523 5521 5519 5518 5522 5519 5513 5508 5513 5513 5547 5564 5566 5570 5575 5580 5583 5593 5600 5620 5637 5635 5647 5669 5693 5699 5716 5727 5735 5741 5747
5543 5543 5543 5544 5543 5532 5531 5532 5526 5518 5489 5515 5522 5518 5518 5514 5511 5521 5517 5510 5506 5503 5507 5501 5529 5538 5540 5549 5559 5559 5583 5594 5597 5601 5596 5629 5620 5657 5688 5700 5706 5716 5727 5742 5741
5541 5540 5539 5534 5530 5528 5532 5527 5522 5509 5479 5514 5507 5513 5506 5498 5500 5515 5517 5508 5503 5503 5501 5506 5522 5523 5524 5540 5552 5564 5574 5578 5584 5587 5591 5602 5592 5686 5688 5692 5709 5724 5737 5742 5740
5541 5540 5536 5532 5525 5530 5526 5521 5512 5482 5463 5499 5498 5491 5489 5491 5497 5503 5504 5509 5505 5500 5498 5505 5518 5515 5524 5535 5546 5563 5560 5564 5569 5564 5557 5594 5592 5673 5677 5702 5714 5720 5727 5736 5741
5542 5542 5536 5530 5529 5526 5522 5509 5483 5462 5491 5487 5485 5485 5478 5475 5486 5487 5490 5490 5491 5488 5495 5503 5510 5521 5527 5519 5532 5542 5534 5526 5532 5530 5571 5605 5586 5669 5695 5701 5706 5712 5715 5726 5734
5544 5544 5537 5531 5525 5519 5511 5493 5480 5472 5476 5484 5482 5481 5468 5476 5481 5480 5480 5468 5489 5487 5487 5482 5497 5510 5522 5520 5521 5524 5526 5528 5544 5540 5574 5595 5603 5660 5687 5708 5706 5704 5710 5718 5725
5544 5538 5531 5528 5523 5514 5496 5468 5453 5476 5482 5476 5476 5471 5470 5474 5468 5466 5472 5469 5483 5474 5472 5481 5493 5506 5520 5528 5525 5524 5519 5552 5542 5554 5563 5587 5633 5659 5677 5690 5702 5703 5704 5708 5722
5530 5525 5525 5522 5515 5504 5480 5484 5477 5480 5478 5472 5456 5464 5456 5458 5453 5456 5467 5479 5479 5480 5473 5477 5479 5497 5512 5526 5527 5527 5537 5525 5511 5543 5557 5589 5610 5631 5655 5666 5687 5690 5695 5708 5722
5522 5521 5521 5517 5510 5485 5460 5469 5479 5482 5475 5464 5463 5459 5457 5451 5452 5453 5465 5480 5479 5475 5473 5474 5480 5501 5508 5511 5513 5519 5521 5528 5529 5533 5559 5579 5603 5639 5654 5662 5673 5679 5689 5702 5719
5507 5512 5517 5512 5482 5452 5453 5470 5476 5477 5471 5464 5464 5459 5455 5452 5447 5452 5462 5475 5476 5473 5465 5471 5465 5478 5501 5507 5508 5510 5514 5518 5522 5539 5557 5559 5588 5642 5650 5657 5668 5680 5690 5703 5712
5502 5496 5508 5504 5455 5447 5458 5468 5469 5470 5463 5459 5455 5458 5456 5442 5437 5447 5460 5475 5473 5471 5466 5466 5458 5471 5489 5500 5505 5505 5511 5514 5514 5516 5531 5553 5596 5635 5644 5655 5662 5671 5685 5699 5707
5495 5484 5483 5474 5459 5459 5456 5465 5472 5468 5461 5460 5454 5458 5447 5444 5451 5444 5453 5462 5470 5469 5474 5465 5455 5459 5459 5485 5487 5488 5503 5510 5506 5499 5540 5569 5583 5610 5633 5635 5654 5665 5678 5696 5703
5480 5469 5467 5452 5452 5450 5453 5460 5466 5461 5462 5454 5448 5451 5447 5449 5448 5450 5451 5453 5457 5463 5462 5463 5463 5452 5462 5476 5482 5485 5491 5500 5502 5520 5517 5570 5569 5583 5618 5629 5642 5654 5676 5693 5697
5467 5464 5457 5452 5454 5454 5456 5463 5466 5461 5450 5455 5447 5454 5451 5443 5442 5446 5446 5441 5442 5450 5462 5451 5456 5468 5467 5474 5477 5482 5494 5500 5511 5518 5537 5545 5561 5575 5614 5627 5640 5655 5671 5685 5693
5470 5460 5454 5458 5448 5445 5444 5462 5465 5454 5458 5452 5453 5449 5453 5459 5461 5458 5455 5454 5452 5455 5455 5457 5456 5450 5471 5485 5477 5476 5503 5509 5519 5529 5534 5537 5558 5570 5606 5617 5631 5649 5668 5682 5692